This is the latest recevied weather packets stored in our database for station/object 4S6DRJ-13. If no packets are shown the sender has not sent any weather packets the latest 10 day(s).
| Time | Temp. | Humidity | Pressure | Rain* | Wind** | Luminosity | Snow |
|---|---|---|---|---|---|---|---|
| 1787985169 | 30.56° C | 75% | 1010.1 hPa | 0 mm | 1.79 m/s, 213° | 881 W/m² | - |
| 1787985108 | 30.56° C | 75% | 1010.1 hPa | 0 mm | 2.68 m/s, 198° | 1138 W/m² | - |
| 1787985047 | 30.56° C | 75% | 1010.2 hPa | 0 mm | 1.34 m/s, 54° | 1133 W/m² | - |
| 1787984986 | 30.56° C | 75% | 1010.1 hPa | 0 mm | 0.89 m/s, 200° | 289 W/m² | - |
| 1787984925 | 30.56° C | 75% | 1010.1 hPa | 0 mm | 0.89 m/s, 235° | 448 W/m² | - |
| 1787984865 | 30.56° C | 75% | 1010.1 hPa | 0 mm | 1.79 m/s, 250° | 539 W/m² | - |
| 1787984803 | 30.56° C | 74% | 1010.1 hPa | 0 mm | 0.89 m/s, 0° | 361 W/m² | - |
| 1787984742 | 30.56° C | 74% | 1010.2 hPa | 0 mm | 1.79 m/s, 240° | 341 W/m² | - |
| 1787984693 | 30.56° C | 75% | 1010.2 hPa | 0 mm | 2.24 m/s, 58° | 1120 W/m² | - |
| 1787984620 | 30.56° C | 76% | 1010.1 hPa | 0 mm | 3.13 m/s, 200° | 671 W/m² | - |
| 1787984559 | 30.56° C | 76% | 1010.1 hPa | 0 mm | 0.89 m/s, 175° | 1124 W/m² | - |
| 1787984498 | 30.56° C | 75% | 1010.3 hPa | 0 mm | 2.24 m/s, 274° | 344 W/m² | - |
| 1787984437 | 30.56° C | 75% | 1010.1 hPa | 0 mm | 2.24 m/s, 252° | 515 W/m² | - |
| 1787984376 | 30.56° C | 75% | 1010.2 hPa | 0 mm | 2.68 m/s, 348° | 593 W/m² | - |
| 1787984315 | 30.56° C | 74% | 1010.6 hPa | 0 mm | 4.47 m/s, 203° | 414 W/m² | - |
| 1787984254 | 30.56° C | 74% | 1010.4 hPa | 0 mm | 3.58 m/s, 18° | 1122 W/m² | - |
| 1787984193 | 30.56° C | 74% | 1010.3 hPa | 0 mm | 4.02 m/s, 81° | 1128 W/m² | - |
| 1787984132 | 30.56° C | 75% | 1010.4 hPa | 0 mm | 3.13 m/s, 205° | 675 W/m² | - |
| 1787984071 | 30.56° C | 74% | 1010.3 hPa | 0 mm | 3.58 m/s, 264° | 1128 W/m² | - |
| 1787984010 | 31.11° C | 74% | 1010.3 hPa | 0 mm | 3.58 m/s, 240° | 1127 W/m² | - |
| 1787983949 | 31.11° C | 73% | 1010.3 hPa | 0 mm | 4.92 m/s, 203° | 377 W/m² | - |
| 1787983888 | 31.11° C | 73% | 1010.4 hPa | 0 mm | 2.68 m/s, 219° | 1134 W/m² | - |
| 1787983828 | 30.56° C | 73% | 1010.4 hPa | 0 mm | 1.34 m/s, 249° | 890 W/m² | - |
| 1787983766 | 30.56° C | 73% | 1010.4 hPa | 0 mm | 1.79 m/s, 237° | 1144 W/m² | - |
| 1787983705 | 30.56° C | 73% | 1010.6 hPa | 0 mm | 2.68 m/s, 238° | 1103 W/m² | - |
* Rain latest hour (hover to see other rain measurements)
** Current wind speed in m/s (hover to see current wind gust speed)